Flag for France Weather past 2 weeks in Orléans, France

Now
57 °F

Clear.


Feels Like: 55 °F
Forecast: 54 / 72 °F
Wind: 8 mph from West

Location: Orleans Airport

Current Time: Aug 29, 2014 at 8:20:47 AM

Latest Report: Aug 29, 2014 at 8:00 AM


Visibility: N/A

Pressure: 30.07 "Hg

Humidity: 94%

Dew point: 55 °F

Location of OrléansLocation

Historic Weather in Orléans — Graph

°F

Orléans temperature yesterday

Maximum temperature yesterday: 75 °F (at 6:00 PM)
Minimum temperature yesterday: 61 °F (at 12:00 AM)
Average temperature yesterday: 67 °F

Past Weeks' High & Low Weather Summary

 TemperatureHumidityPressure
High75 °F (Aug 28, 6:00 PM)100% (Aug 15, 1:00 AM)30.24 "Hg (Aug 15, 1:00 AM)
Low41 °F (Aug 21, 6:00 AM)38% (Aug 21, 3:30 PM)29.68 "Hg (Aug 26, 9:30 AM)
Average60 °F75%30.00 "Hg
* Reported Aug 14 7:00 AM — Aug 29 7:00 AM, Orléans, Weather by CustomWeather, © 2014

Note: Actual official high and low records may vary slightly from our data, if they occured in-between our weather recording intervals... More about our weather records

Advertising

Orléans weather history for previous 24 hours

 ConditionsComfort  
Time TempWeatherWind HumidityBarometerVisibility
7:00 AM
Aug 29
55 °FClear.5 mph94%30.04 "HgN/A
6:30 AM57 °FClear.6 mph94%30.04 "HgN/A
6:00 AM55 °FClear.6 mph94%30.04 "HgN/A
5:30 AM57 °FClear.5 mph94%30.04 "HgN/A
5:00 AM57 °FClear.5 mph94%30.04 "HgN/A
4:30 AM57 °FClear.5 mph94%30.04 "HgN/A
4:00 AM59 °FClear.6 mph88%30.04 "HgN/A
3:30 AM59 °FClear.5 mph88%30.04 "HgN/A
3:00 AM59 °FClear.6 mph94%30.04 "HgN/A
2:30 AM59 °FClear.5 mph88%30.04 "HgN/A
2:00 AM61 °FClear.5 mph88%30.04 "HgN/A
1:30 AM63 °FPassing clouds.7 mph83%30.04 "HgN/A
1:00 AM64 °FMostly cloudy.8 mph83%30.04 "HgN/A
12:30 AM64 °FPassing clouds.8 mph83%30.04 "HgN/A
12:00 AM64 °FClear.3 mph83%30.01 "HgN/A
11:30 PM
Aug 28
64 °FClear.3 mph83%30.01 "HgN/A
11:00 PM64 °FClear.3 mph83%30.01 "HgN/A
10:30 PM64 °FClear.3 mph78%30.01 "HgN/A
10:00 PM64 °FPassing clouds.3 mph78%30.01 "HgN/A
9:30 PM64 °FScattered clouds.2 mph78%30.01 "HgN/A
9:00 PM64 °FRain. Fog.2 mph78%30.01 "Hg2 mi
8:30 PM66 °FPassing clouds.6 mph73%30.01 "HgN/A
8:00 PM70 °FScattered clouds.9 mph64%30.01 "HgN/A
7:30 PM70 °FBroken clouds.12 mph64%30.01 "HgN/A
7:00 PM73 °FPartly sunny.14 mph57%30.01 "HgN/A
6:30 PM72 °FBroken clouds.12 mph61%30.01 "HgN/A
6:00 PM75 °FScattered clouds.13 mph57%29.98 "HgN/A
5:30 PM73 °FClear.14 mph61%29.98 "HgN/A
5:00 PM73 °FPassing clouds.14 mph57%29.98 "HgN/A
4:30 PM73 °FPartly sunny.15 mph57%30.01 "HgN/A
4:00 PM72 °FPartly sunny.15 mph61%30.01 "HgN/A
3:30 PM72 °FBroken clouds.16 mph61%30.01 "HgN/A
3:00 PM72 °FPartly sunny.20 mph61%30.01 "HgN/A
2:30 PM72 °FBroken clouds.22 mph61%30.01 "HgN/A
2:00 PM72 °FPartly sunny.20 mph65%30.01 "HgN/A
1:30 PM70 °FPartly sunny.22 mph64%30.01 "HgN/A
1:00 PM72 °FMostly cloudy.20 mph73%29.98 "HgN/A
12:30 PM70 °FPartly sunny.18 mph73%29.98 "HgN/A
12:00 PM70 °FBroken clouds.17 mph78%29.98 "HgN/A
11:30 AM70 °FMostly cloudy.15 mph83%29.98 "HgN/A
11:00 AM68 °FMore clouds than sun.13 mph88%29.98 "HgN/A
10:30 AM68 °FPartly sunny.12 mph83%29.98 "HgN/A
10:00 AM66 °FOvercast.13 mph88%29.98 "HgN/A
9:30 AM66 °FPartly sunny.12 mph88%29.98 "HgN/A
9:00 AM66 °FBroken clouds.12 mph88%29.98 "HgN/A
8:30 AM64 °FScattered clouds.7 mph88%29.95 "HgN/A
8:00 AM63 °FPassing clouds.6 mph88%29.95 "HgN/A
Weather by CustomWeather, © 2014

See weather overviewHow to use our weather pages